Location: Aix-en-Ergny
(50.5839°N, 1.9996°E)
Time: 06:36:23
(UTC+00:00)

CZ-2C R/B - Pass Details

Date: 23 October 2019
Orbit: 669 x 784 km, 98.1° (Epoch: 11 November)

Event Time Altitude Azimuth Distance (km) Brightness Sun altitude
Rises 03:27:39 0° 22° (NNE) 3,287 6.3 -28.9°
Reaches altitude 10° 03:30:19 10° 33° (NNE) 2,351 5.6 -28.5°
Maximum altitude 03:34:48 29° 93° (E) 1,416 4.4 -27.8°
Drops below altitude 10° 03:39:11 10° 152° (SSE) 2,307 5.1 -27.1°
Sets 03:41:45 0° 164° (SSE) 3,214 5.7 -26.7°
